Regional Weather Roundup
Issued by NWS Sterling, VA

Home | Current Version | Previous Version | Graphics & Text | Print | Product List | Glossary On
Versions: 1 2 3 4 5 6 7 8 9 10 11 12 13 14 15 16 17 18 19 20 21 22 23 24 25 26 27 28
000
ASUS41 KLWX 301310
RWRLWX

REGIONAL WEATHER ROUNDUP
NATIONAL WEATHER SERVICE BALTIMORE MD/WASHINGTON DC
900 AM EDT MON MAY 30 2016

Note: "FAIR" indicates few or no clouds below 12,000 feet
with no significant weather and/or obstructions to visibility.
 TC=TEMPERATURE CELSIUS

 * =Non NWS site. Station does not report precipitation (e.g. rain,
    snow, etc.), thunder, or fog.

DCZ001-MDZ009-015-VAZ040>042-051-053>054-301400-
WASHINGTON METRO

CITY           SKY/WX    TMP DP  RH WIND       PRES   REMARKS
WASHINGTON NAT CLOUDY    73  66  78 N6        30.04S
DULLES         PTSUNNY   71  63  75 CALM      30.05S
ANDREWS AFB    CLOUDY    70  65  83 N6        30.03S
FT BELVOIR     CLOUDY    71  66  85 CALM      30.03F
QUANTICO       CLOUDY    73  66  78 NE5       30.04S
COLLEGE PARK*  CLOUDY    70  63  78 N5        30.04S
LEESBURG*      CLOUDY    70  66  88 CALM      30.06S
MANASSAS*      PTSUNNY   72  66  83 N7        30.04S

$$

MDZ006>007-011-014-301400-
BALTIMORE METRO

CITY           SKY/WX    TMP DP  RH WIND       PRES   REMARKS
BWI AIRPORT    CLOUDY    71  65  81 W3        30.03S
MD SCIENCE CTR   N/A     72  62  71 MISG      30.04S
ANNAPOLIS      CLOUDY    71  66  84 NW7       30.03R
FORT MEADE*    CLOUDY    70  64  83 CALM      30.06S

$$

MDZ012-015-019>023-301400-
MARYLAND EASTERN SHORE

CITY           SKY/WX    TMP DP  RH WIND       PRES   REMARKS
OCEAN CITY     LGT RAIN  70  69  97 SW5       30.03S FOG
SALISBURY      CLOUDY    73  72  96 S6        30.03R
BAY BRIDGE AP* PTSUNNY   72  68  88 N6        30.03S
CAMBRIDGE*     CLOUDY    72  70  94 CALM      30.02S
EASTON*        CLOUDY    73  73 100 CALM      30.06R

$$

MDZ017>025-301400-
SOUTHERN MARYLAND

CITY           SKY/WX    TMP DP  RH WIND       PRES   REMARKS
PATUXENT RIVER CLOUDY    71  69  93 CALM      30.02R
ST INIGOES     CLOUDY    74  72  93 S3        30.01S
LEONARDTOWN*   CLOUDY    70  70 100 CALM      30.04S VSB 3/4

$$

MDZ003>005-301400-
NORTH CENTRAL MARYLAND

CITY           SKY/WX    TMP DP  RH WIND       PRES   REMARKS
FREDERICK*     NOT AVBL
HAGERSTOWN APT CLOUDY    68  63  84 SW5       30.05R
WESTMINSTER*   CLOUDY    70  61  73 CALM      30.05S

$$

MDZ501>502-301400-
WESTERN MARYLAND

CITY           SKY/WX    TMP DP  RH WIND       PRES   REMARKS
OAKLAND*       CLOUDY    63  57  82 W5        30.12R
CUMBERLAND*    CLOUDY    64  63  94 CALM      30.09S

$$

VAZ025>031-301400-
SHENANDOAH VALLEY

CITY           SKY/WX    TMP DP  RH WIND       PRES   REMARKS
WINCHESTER*    CLOUDY    68  61  77 SW7       30.05S
FRONT ROYAL*   CLOUDY    64  63  94 S6        30.05S
LURAY*         CLOUDY    66  64  94 SW5       30.06F
NEW MARKET*    CLOUDY    65  61  88 SW3       30.05F
STAUNTON*      FAIR      63  60  91 CALM      30.09S
WAYNESBORO*    CLOUDY    63  60  90 CALM      30.08S

$$

WVZ021-048>050-054>055-301400-
EASTERN WEST VIRGINIA PANHANDLE

CITY           SKY/WX    TMP DP  RH WIND       PRES   REMARKS
MARTINSBURG    CLOUDY    66  63  90 CALM      30.04S
PETERSBURG*    FAIR      68  61  79 CALM      30.06S

$$

VAZ036>039-050-301400-
CENTRAL FOOTHILLS

CITY           SKY/WX    TMP DP  RH WIND       PRES   REMARKS
CHARLOTTESVILL CLOUDY    70  62  76 CALM      30.04F
CULPEPER*      CLOUDY    69  67  96 CALM      30.05S
ORANGE*        CLOUDY    70  68  94 CALM      30.06S
GORDONSVILLE*  CLOUDY    69  66  90 CALM      30.03F
WARRENTON*     CLOUDY    71  64  77 CALM      30.04S

$$

VAZ055>057-301400-
NORTH AND CENTRAL PIEDMONT

CITY           SKY/WX    TMP DP  RH WIND       PRES   REMARKS
FREDERICKSBRG* CLOUDY    70  70 100 CALM      30.03S
STAFFORD*      CLOUDY    70  65  83 N3        30.08S

$$

NCZ024-NYZ072-PAZ021-071-VAZ022-071-301400-
OTHER REGIONAL OBSERVATIONS

CITY           SKY/WX    TMP DP  RH WIND       PRES   REMARKS
NEW YORK CITY  CLOUDY    69  67  93 VRB3      30.04R FOG
PHILADELPHIA   CLOUDY    71  67  87 NW8       30.03R
PITTSBURGH     PTSUNNY   70  62  76 NW6       30.02F
ROANOKE        FAIR      65  60  84 CALM      30.10R
RICHMOND       CLOUDY    70  68  93 CALM      30.02S FOG
RALEIGH        FOG       68  67  96 NE5       30.02R VSB 1/4

$$

ANZ530>537-301400-
MARINE OBSERVATIONS

STATION/POSITION TIME  TEMP    WIND        PRES
                       AIR SEA DIR/SP/G
                 (UTC) (F)     (DEG/KT/KT) (MB)
THOMAS PT LIGHT  1300   69 69  350/  5/  5 1018.2R
BALT KEY BRIDGE  1200   70     320/  4/  4 1016.6R
COVE POINT       1200   67     350/  2/  4 1017.0R
LEWISETTA        1200   73 70   CALM  /  2 1016.1R
SOLOMONS ISLAND  1200   69 67  130/  3/  3   N/A
PINEY POINT      1200          310/  3/  3   N/A

$$





USA.gov is the U.S. government's official web portal to all federal, state and local government web resources and services.